Regional Weather Roundup
Issued by NWS

Home | Current Version | Previous Version | Graphics & Text | Print | Product List | Glossary On
Versions: 1 2 3 4 5 6 7 8 9 10 11 12 13 14 15 16 17 18 19 20 21 22 23 24 25 26 27 28 29 30 31 32 33 34 35 36 37 38 39 40 41 42 43 44 45 46 47 48 49 50
945
ASUS43 KFSD 270310
RWRSD

WEATHER ROUNDUP FOR SOUTH DAKOTA
NATIONAL WEATHER SERVICE SIOUX FALLS SD
1000 PM CDT SUN MAR 26 2017

NOTE: "FAIR" INDICATES FEW OR NO CLOUDS BELOW 12,000 FEET WITH NO
SIGNIFICANT WEATHER AND/OR OBSTRUCTIONS TO VISIBILITY.


SDZ001>005-009-010-012>017-270400-
NORTHWEST AND NORTH CENTRAL SOUTH DAKOTA

CITY           SKY/WX    TMP DP  RH WIND       PRES   REMARKS
BUFFALO          N/A     43  36  76 SW5       29.85R
FAITH            N/A     44  41  89 MISG      29.92R
MOBRIDGE       CLOUDY    46  35  65 E3        29.89S
$$

SDZ012>016-024>037-041>051-057-063-072>074-270400-
SOUTHWEST AND SOUTH CENTRAL SOUTH DAKOTA

CITY           SKY/WX    TMP DP  RH WIND       PRES   REMARKS
RAPID CTY ARPT CLOUDY    38  38 100 W3        29.93S
PIERRE         PTCLDY    42  37  82 S5        29.93R
CUSTER         CLOUDY    35  32  88 N3        29.93S
ELLSWORTH AFB  CLOUDY    40  40 100 W5        29.93R
PHILIP         CLOUDY    42  39  89 CALM      29.94S
PINE RIDGE     CLOUDY    44  39  82 CALM      29.95R
SPEARFISH      FAIR      37  36  93 CALM      29.94R
WINNER         FAIR      40  35  83 E6        29.95S
$$

SDZ004>011-016>023-039-040-270400-
NORTHEAST SOUTH DAKOTA

CITY           SKY/WX    TMP DP  RH WIND       PRES   REMARKS
ABERDEEN       CLOUDY    40  35  83 SE3       29.93F
WATERTOWN      CLOUDY    34  33  96 CALM      29.93R
BROOKINGS      CLOUDY    40  37  89 S6        29.95R
SISSETON         N/A     38  36  92 CALM      29.94S
$$

SDZ017-020-022-023-036>040-048>070-270400-
SOUTHEAST SOUTH DAKOTA

CITY           SKY/WX    TMP DP  RH WIND       PRES   REMARKS
SIOUX FALLS    CLOUDY    44  39  82 CALM      29.98R
HURON          PTCLDY    40  37  89 S3        29.95R
CHAMBERLAIN    CLEAR     38  38 100 E5        29.96R
MITCHELL       CLOUDY    45  39  79 SW3       29.98R
YANKTON        CLOUDY    46  39  76 E3        29.97R
$$

ABBREVIATIONS USED IN REMARKS
   TC - TEMPERATURE IN CELSIUS
  WCI - WIND CHILL INDEX
   HX - HEAT INDEX
  VSB - VISIBILITY





USA.gov is the U.S. government's official web portal to all federal, state and local government web resources and services.